AJ7DN Weather Reports


Display with metric or nautical units.
time (UTC)temp
F
wind
direction
speed
MPH
gust
MPH
rain 1hr
in
rain 24hr
in
rain mn
in
humidity
%
barometer
mb
20260506015507 65 226 1.0 1.0 0.00 0.00 0.00 68 1019.4
20260506015004 65 106 0.0 0.0 0.00 0.00 0.00 68 1019.5
20260506014501 65 110 0.0 0.0 0.00 0.00 0.00 69 1019.5
20260506013957 66 206 0.0 0.0 0.00 0.00 0.00 68 1019.5
20260506013455 66 105 0.0 0.0 0.00 0.00 0.00 67 1019.5
20260506012951 66 79 0.0 1.0 0.00 0.00 0.00 67 1019.4
20260506012448 66 114 0.0 0.0 0.00 0.00 0.00 67 1019.8
20260506011945 66 134 0.0 0.0 0.00 0.00 0.00 68 1019.5
20260506011442 66 75 0.0 1.0 0.00 0.00 0.00 67 1019.7
20260506010939 66 133 0.0 0.0 0.00 0.00 0.00 68 1019.4
20260506010438 66 133 0.0 0.0 0.00 0.00 0.00 67 1019.5
20260506005933 66 113 0.0 0.0 0.00 0.00 0.00 67 1019.5
20260506005432 67 69 0.0 0.0 0.00 0.00 0.00 65 1019.7
20260506004926 67 108 0.0 0.0 0.00 0.00 0.00 64 1019.4
20260506004425 68 108 0.0 0.0 0.00 0.00 0.00 63 1019.5
20260506003920 68 93 0.0 0.0 0.00 0.00 0.00 65 1019.3
20260506003417 68 107 0.0 0.0 0.00 0.00 0.00 63 1019.7
20260506002914 69 89 0.0 0.0 0.00 0.00 0.00 61 1019.9
20260506002410 68 71 0.0 0.0 0.00 0.00 0.00 64 1019.7
20260506001905 67 100 0.0 0.0 0.00 0.00 0.00 64 1019.6
20260506001402 66 57 0.0 1.0 0.00 0.00 0.00 65 1019.9
20260506000859 67 141 1.0 1.0 0.00 0.00 0.00 64 1019.8
20260506000357 67 105 0.0 0.0 0.00 0.00 0.00 65 1019.7
20260505235854 66 116 0.0 0.0 0.00 0.00 0.00 66 1019.7
20260505235351 67 133 0.0 0.0 0.00 0.00 0.00 65 1019.8
20260505234848 67 127 0.0 0.0 0.00 0.00 0.00 64 1020.0
20260505234346 67 136 0.0 0.0 0.00 0.00 0.00 64 1020.1
20260505233842 66 95 0.0 0.0 0.00 0.00 0.00 66 1020.0
20260505233341 65 104 0.0 0.0 0.00 0.00 0.00 67 1020.2
20260505232838 66 75 0.0 0.0 0.00 0.00 0.00 67 1020.1
20260505232336 65 112 0.0 0.0 0.00 0.00 0.00 68 1020.2
20260505231832 65 129 0.0 0.0 0.00 0.00 0.00 68 1020.4
20260505231330 64 136 0.0 1.0 0.00 0.00 0.00 70 1020.1
20260505230828 64 245 0.0 0.0 0.00 0.00 0.00 69 1020.2
20260505230324 64 131 0.0 0.0 0.00 0.00 0.00 69 1020.0
20260505225821 65 111 0.0 0.0 0.00 0.00 0.00 68 1020.3
20260505225318 65 227 0.0 1.0 0.00 0.00 0.00 68 1020.2
20260505224813 64 115 0.0 1.0 0.00 0.00 0.00 69 1020.4
20260505224311 65 12 1.0 1.0 0.00 0.00 0.00 67 1020.3
20260505223808 65 82 0.0 0.0 0.00 0.00 0.00 68 1020.2
20260505223306 65 72 1.0 1.0 0.00 0.00 0.00 68 1020.3
20260505222801 65 69 0.0 1.0 0.00 0.00 0.00 68 1020.6
20260505222257 64 84 0.0 0.0 0.00 0.00 0.00 68 1020.5
20260505221755 64 78 0.0 0.0 0.00 0.00 0.00 69 1020.3
20260505221251 64 75 0.0 0.0 0.00 0.00 0.00 69 1020.6
20260505220748 64 81 1.0 1.0 0.00 0.00 0.00 69 1020.5
20260505220245 64 99 0.0 0.0 0.00 0.00 0.00 69 1020.6
20260505215743 64 155 0.0 1.0 0.00 0.00 0.00 69 1020.4
20260505215241 65 83 0.0 1.0 0.00 0.00 0.00 68 1020.6
20260505214739 64 258 0.0 0.0 0.00 0.00 0.00 69 1020.7
20260505214236 65 212 1.0 1.0 0.00 0.00 0.00 68 1020.7
20260505213733 65 69 0.0 1.0 0.00 0.00 0.00 66 1020.5
20260505213230 65 115 0.0 0.0 0.00 0.00 0.00 69 1020.5
20260505212726 66 200 1.0 1.0 0.00 0.00 0.00 68 1020.7
20260505212224 66 191 1.0 1.0 0.00 0.00 0.00 66 1020.8
20260505211720 66 112 0.0 0.0 0.00 0.00 0.00 67 1020.5
20260505211218 66 117 0.0 0.0 0.00 0.00 0.00 67 1020.5
20260505210714 65 90 0.0 0.0 0.00 0.00 0.00 68 1020.7
20260505210211 65 170 0.0 1.0 0.00 0.00 0.00 69 1020.6
20260505205708 65 124 0.0 0.0 0.00 0.00 0.00 69 1020.7
20260505205207 65 190 1.0 2.0 0.00 0.00 0.00 67 1021.0
20260505204702 66 183 0.0 0.0 0.00 0.00 0.00 68 1020.8
20260505204201 64 73 0.0 0.0 0.00 0.00 0.00 69 1020.5
20260505203658 63 144 0.0 0.0 0.00 0.00 0.00 70 1020.8
20260505203154 64 227 3.0 3.0 0.00 0.00 0.00 70 1020.9
20260505202650 64 122 0.0 1.0 0.00 0.00 0.00 71 1020.9
20260505202146 63 21 1.0 1.0 0.00 0.00 0.00 70 1020.9
20260505201643 64 92 0.0 0.0 0.00 0.00 0.00 69 1021.1
20260505201141 63 157 0.0 0.0 0.00 0.00 0.00 72 1021.0
20260505200639 63 248 1.0 1.0 0.00 0.00 0.00 72 1021.1
20260505200135 62 223 1.0 2.0 0.00 0.00 0.00 71 1021.2
20260505195632 63 248 3.0 3.0 0.00 0.00 0.00 70 1021.0
20260505195129 63 124 1.0 2.0 0.00 0.00 0.00 70 1021.1
20260505194626 63 148 1.0 1.0 0.00 0.00 0.00 71 1021.0
20260505194122 63 38 2.0 2.0 0.00 0.00 0.00 70 1021.1
20260505193619 62 92 0.0 1.0 0.00 0.00 0.00 71 1021.2
20260505193116 62 316 1.0 2.0 0.00 0.00 0.00 72 1021.3
20260505192615 63 133 0.0 0.0 0.00 0.00 0.00 72 1021.2
20260505192111 63 102 0.0 0.0 0.00 0.00 0.00 71 1021.2
20260505191610 63 92 0.0 0.0 0.00 0.00 0.00 70 1021.1
20260505191107 63 153 1.0 1.0 0.00 0.00 0.00 72 1021.2
20260505190602 62 176 1.0 2.0 0.00 0.00 0.00 72 1021.3
20260505190058 62 242 0.0 1.0 0.00 0.00 0.00 72 1021.3
20260505185555 62 46 1.0 2.0 0.00 0.00 0.00 71 1021.2
20260505185051 62 82 0.0 0.0 0.00 0.00 0.00 72 1021.2
20260505184548 61 47 0.0 1.0 0.00 0.00 0.00 73 1021.1
20260505184045 62 105 0.0 0.0 0.00 0.00 0.00 72 1021.3
20260505183541 63 110 0.0 1.0 0.00 0.00 0.00 71 1021.1
20260505183039 62 96 0.0 1.0 0.00 0.00 0.00 72 1021.0
20260505182535 62 185 0.0 1.0 0.00 0.00 0.00 72 1021.3
20260505182032 62 130 0.0 0.0 0.00 0.00 0.00 72 1021.0
20260505181529 63 68 0.0 0.0 0.00 0.00 0.00 73 1020.8
20260505181026 62 75 0.0 0.0 0.00 0.00 0.00 72 1021.1
20260505180522 62 51 1.0 1.0 0.00 0.00 0.00 73 1021.2
20260505180021 61 121 0.0 1.0 0.00 0.00 0.00 75 1020.9
20260505175514 60 95 0.0 1.0 0.00 0.00 0.00 76 1021.0
20260505175012 60 60 1.0 1.0 0.00 0.00 0.00 75 1021.2
20260505174509 59 64 0.0 0.0 0.00 0.00 0.00 77 1021.1
20260505174004 59 244 1.0 2.0 0.00 0.00 0.00 79 1021.0
20260505173501 59 200 0.0 0.0 0.00 0.00 0.00 78 1021.2
20260505172958 59 93 0.0 0.0 0.00 0.00 0.00 78 1021.3
20260505172457 59 218 0.0 1.0 0.00 0.00 0.00 78 1021.1
20260505171956 59 95 0.0 0.0 0.00 0.00 0.00 78 1020.9
20260505171453 59 183 0.0 1.0 0.00 0.00 0.00 78 1020.8
20260505170950 58 50 0.0 1.0 0.00 0.00 0.00 79 1020.9
20260505170447 58 70 1.0 1.0 0.00 0.00 0.00 80 1020.8
20260505165942 58 116 0.0 0.0 0.00 0.00 0.00 79 1021.0
20260505165438 58 73 0.0 0.0 0.00 0.00 0.00 79 1020.7
20260505164934 58 187 1.0 1.0 0.00 0.00 0.00 81 1020.9
20260505164431 58 167 0.0 1.0 0.00 0.00 0.00 80 1021.0
20260505163928 58 87 0.0 0.0 0.00 0.00 0.00 81 1020.8
20260505163427 57 204 1.0 1.0 0.00 0.00 0.00 81 1020.8
20260505162926 57 65 0.0 0.0 0.00 0.00 0.00 82 1020.8
20260505162421 56 126 0.0 0.0 0.00 0.00 0.00 83 1020.8
20260505161918 57 139 0.0 0.0 0.00 0.00 0.00 83 1020.6
20260505161415 56 50 0.0 0.0 0.00 0.00 0.00 83 1020.9
20260505160912 56 103 0.0 0.0 0.00 0.00 0.00 85 1020.5
20260505160410 56 232 1.0 2.0 0.00 0.00 0.00 84 1020.7
20260505153349 56 77 0.0 0.0 0.00 0.00 0.00 85 1020.8
20260505152846 56 42 0.0 0.0 0.00 0.00 0.00 86 1020.6
20260505152344 55 54 1.0 1.0 0.00 0.00 0.00 86 1020.6
20260505151843 55 84 0.0 0.0 0.00 0.00 0.00 86 1020.5
20260505151340 55 100 0.0 0.0 0.00 0.00 0.00 87 1020.6
20260505150837 55 90 0.0 0.0 0.00 0.00 0.00 87 1020.4
20260505150335 55 85 0.0 0.0 0.00 0.00 0.00 87 1020.5
20260505140258 54 131 0.0 0.0 0.00 0.00 0.00 89 1019.9
20260505130222 53 115 0.0 0.0 0.00 0.00 0.00 90 1019.9
20260505124712 53 138 0.0 0.0 0.00 0.00 0.00 90 1019.6
20260505124209 53 139 0.0 0.0 0.00 0.00 0.00 91 1019.5
20260505123705 53 139 0.0 0.0 0.00 0.00 0.00 91 1019.6
20260505123202 53 139 0.0 0.0 0.00 0.00 0.00 92 1019.6
20260505122658 53 139 0.0 0.0 0.00 0.00 0.00 92 1019.5
20260505122155 53 139 0.0 0.0 0.00 0.00 0.00 92 1019.6
20260505121652 53 139 0.0 0.0 0.00 0.00 0.00 92 1019.5
20260505121149 53 139 0.0 0.0 0.00 0.00 0.00 92 1019.6
20260505120645 53 139 0.0 0.0 0.00 0.00 0.00 92 1019.3
20260505120141 53 139 0.0 0.0 0.00 0.00 0.00 92 1019.5
20260505115635 53 131 0.0 0.0 0.00 0.00 0.00 93 1019.4
20260505115133 52 131 0.0 0.0 0.00 0.00 0.00 93 1019.5
20260505114630 52 130 0.0 0.0 0.00 0.00 0.00 93 1019.5
20260505114126 52 130 0.0 0.0 0.00 0.00 0.00 93 1019.4
20260505113623 52 130 0.0 0.0 0.00 0.00 0.00 93 1019.4
20260505113119 52 130 0.0 0.0 0.00 0.00 0.00 93 1019.1
20260505112615 52 130 0.0 0.0 0.00 0.00 0.00 93 1019.6
20260505112114 52 131 0.0 0.0 0.00 0.00 0.00 93 1019.3
20260505111613 52 126 0.0 0.0 0.00 0.00 0.00 94 1019.4
20260505111109 51 126 0.0 0.0 0.00 0.00 0.00 94 1019.3
20260505110606 51 126 0.0 0.0 0.00 0.00 0.00 94 1019.3
20260505102039 51 116 0.0 0.0 0.00 0.00 0.00 94 1019.1
20260505101537 51 116 0.0 0.0 0.00 0.00 0.00 94 1018.9
20260505101033 50 115 0.0 0.0 0.00 0.00 0.00 94 1018.9
20260505100530 50 114 0.0 0.0 0.00 0.00 0.00 94 1018.8
20260505100027 50 107 0.0 0.0 0.00 0.00 0.00 93 1019.0
20260505095523 50 107 0.0 0.0 0.00 0.00 0.00 93 1019.1
20260505095020 50 102 0.0 0.0 0.00 0.00 0.00 93 1019.0
20260505094516 51 123 0.0 0.0 0.00 0.00 0.00 93 1018.8
20260505094012 51 123 0.0 0.0 0.00 0.00 0.00 93 1018.9
20260505093509 51 119 0.0 0.0 0.00 0.00 0.00 93 1018.7
20260505093007 51 119 0.0 0.0 0.00 0.00 0.00 92 1018.7
20260505092504 51 119 0.0 0.0 0.00 0.00 0.00 92 1018.6
20260505092001 51 118 0.0 0.0 0.00 0.00 0.00 92 1018.7
20260505091459 51 119 0.0 0.0 0.00 0.00 0.00 91 1018.7
20260505090957 52 99 0.0 0.0 0.00 0.00 0.00 91 1018.9
20260505090454 52 101 0.0 0.0 0.00 0.00 0.00 91 1018.5
20260505085952 52 98 0.0 0.0 0.00 0.00 0.00 91 1018.6
20260505085449 52 101 0.0 0.0 0.00 0.00 0.00 91 1018.5
20260505084948 52 108 0.0 0.0 0.00 0.00 0.00 91 1018.6
20260505084446 52 105 0.0 0.0 0.00 0.00 0.00 90 1018.5
20260505083943 52 102 0.0 0.0 0.00 0.00 0.00 90 1018.5
20260505083440 52 87 0.0 0.0 0.00 0.00 0.00 90 1018.6
20260505082936 52 86 0.0 0.0 0.00 0.00 0.00 90 1018.7
20260505082432 53 60 0.0 1.0 0.00 0.00 0.00 90 1018.5
20260505081930 53 66 0.0 1.0 0.00 0.00 0.00 90 1018.3
20260505081426 53 52 0.0 1.0 0.00 0.00 0.00 90 1018.3
20260505080923 53 64 1.0 1.0 0.00 0.00 0.00 89 1018.4
20260505080419 53 80 0.0 0.0 0.00 0.00 0.00 89 1018.2
20260505075914 53 63 0.0 0.0 0.00 0.00 0.00 89 1018.4
20260505075411 53 94 0.0 0.0 0.00 0.00 0.00 89 1018.2
20260505074909 53 81 0.0 0.0 0.00 0.00 0.00 88 1018.2
20260505074406 54 53 0.0 1.0 0.00 0.00 0.00 87 1018.1
20260505073903 54 82 0.0 0.0 0.00 0.00 0.00 87 1017.9
20260505073401 54 65 0.0 0.0 0.00 0.00 0.00 87 1018.2
20260505072858 54 87 0.0 0.0 0.00 0.00 0.00 87 1018.0
20260505072354 54 85 0.0 0.0 0.00 0.00 0.00 86 1017.8
20260505071850 54 92 0.0 0.0 0.00 0.00 0.00 86 1017.7
20260505071346 55 67 0.0 1.0 0.00 0.00 0.00 86 1017.8
20260505070845 54 99 0.0 0.0 0.00 0.00 0.00 86 1017.9
20260505070341 55 121 0.0 0.0 0.00 0.00 0.00 86 1017.9
20260505065836 55 86 0.0 0.0 0.00 0.00 0.00 85 1017.7
20260505065333 55 90 0.0 1.0 0.00 0.00 0.00 85 1017.6
20260505064830 55 110 0.0 0.0 0.00 0.00 0.00 85 1017.8
20260505064327 55 86 0.0 0.0 0.00 0.00 0.00 85 1017.5
20260505063826 55 116 0.0 0.0 0.00 0.00 0.00 85 1017.3
20260505063321 55 140 0.0 0.0 0.00 0.00 0.00 84 1017.3
20260505062818 56 95 0.0 0.0 0.00 0.00 0.00 84 1017.2
20260505062316 56 75 0.0 0.0 0.00 0.00 0.00 84 1017.3
20260505061812 56 72 1.0 1.0 0.00 0.00 0.00 83 1017.4
20260505061310 56 86 0.0 0.0 0.00 0.00 0.00 83 1017.5
20260505060807 56 92 0.0 0.0 0.00 0.00 0.00 83 1017.2
20260505060304 56 84 0.0 0.0 0.00 0.00 0.00 83 1017.3
20260505055800 57 84 0.0 0.0 0.00 0.00 0.00 83 1017.3
20260505055256 57 56 0.0 0.0 0.00 0.00 0.00 83 1017.2
20260505054754 57 55 0.0 0.0 0.00 0.00 0.00 83 1017.0
20260505054251 57 69 0.0 0.0 0.00 0.00 0.00 82 1017.1
20260505053749 57 79 0.0 0.0 0.00 0.00 0.00 82 1017.0
20260505053245 58 45 0.0 0.0 0.00 0.00 0.00 81 1017.0
20260505052743 58 74 0.0 0.0 0.00 0.00 0.00 81 1017.0
20260505052240 58 42 0.0 1.0 0.00 0.00 0.00 81 1017.0
20260505051736 58 56 0.0 0.0 0.00 0.00 0.00 80 1016.8
20260505051234 58 73 0.0 0.0 0.00 0.00 0.00 80 1016.8
20260505050732 59 64 1.0 1.0 0.00 0.00 0.00 80 1016.7
20260505050230 59 82 0.0 0.0 0.00 0.00 0.00 80 1016.6
20260505041700 62 89 0.0 1.0 0.00 0.00 0.00 76 1015.9
20260505041157 62 77 0.0 0.0 0.00 0.00 0.00 75 1016.0
20260505040654 63 104 0.0 1.0 0.00 0.00 0.00 75 1015.8
20260505040152 63 120 0.0 0.0 0.00 0.00 0.00 75 1015.6
20260505035648 64 198 0.0 1.0 0.00 0.00 0.00 74 1015.6
20260505035144 64 83 0.0 1.0 0.00 0.00 0.00 73 1015.5
20260505034641 64 80 0.0 0.0 0.00 0.00 0.00 73 1015.5
20260505034138 65 82 0.0 0.0 0.00 0.00 0.00 72 1015.3
20260505033634 65 85 0.0 0.0 0.00 0.00 0.00 72 1015.3
20260505033133 65 51 0.0 1.0 0.00 0.00 0.00 72 1015.3
20260505032631 66 96 0.0 0.0 0.00 0.00 0.00 72 1015.2
20260505032126 66 88 0.0 1.0 0.00 0.00 0.00 70 1015.2
20260505031624 66 73 0.0 0.0 0.00 0.00 0.00 70 1015.2
20260505031120 67 86 0.0 0.0 0.00 0.00 0.00 70 1015.1
20260505030617 67 91 0.0 0.0 0.00 0.00 0.00 70 1015.2
20260505030113 67 74 1.0 1.0 0.00 0.00 0.00 70 1014.9
20260505025609 68 92 0.0 0.0 0.00 0.00 0.00 69 1014.8
20260505025108 68 98 0.0 0.0 0.00 0.00 0.00 69 1014.6
20260505024605 68 106 0.0 0.0 0.00 0.00 0.00 69 1014.7
20260505024102 69 74 1.0 1.0 0.00 0.00 0.00 68 1014.7
20260505023559 69 58 1.0 1.0 0.00 0.00 0.00 67 1014.7
20260505023057 69 94 0.0 1.0 0.00 0.00 0.00 67 1014.7
20260505022554 69 169 0.0 1.0 0.00 0.00 0.00 67 1014.8
20260505022051 70 147 0.0 0.0 0.00 0.00 0.00 67 1014.6
20260505021547 70 201 0.0 1.0 0.00 0.00 0.00 67 1014.7
20260505021044 70 35 1.0 1.0 0.00 0.00 0.00 65 1014.7
20260505020544 71 126 0.0 1.0 0.00 0.00 0.00 67 1014.4
20260505020041 72 99 0.0 0.0 0.00 0.00 0.00 65 1014.7